Find Starlink 4431

NORAD ID: 53486 Int'l Des: 2022-099 Owner: SPXS Country: US Constellation: starlink operational
LEOCIRCULARRETROGRADESSO

当前视图

正在加载3D地球...

About Starlink 4431

Starlink 4431 (NORAD 53486) is a starlink constellation satellite (v1.5) launched Aug 12, 2022 by SPXS of US. It operates in LEO, CIRCULAR, RETROGRADE, SSO orbit with a mass of 300.00 kg.

关于 Starlink 4431

正在加载描述...

即将过境

Passes for default location (London). Set your location on the main map for personalized predictions.

高度历史

Loading altitude history...

两行轨道根数

1 53486U 22099X 26195.16668980 -.00966624 00000-0 -14717-1 0 9991
2 53486 97.6069 320.8022 0001399 89.1736 211.5630 15.57230786 5982
Epoch: Jul 14, 2026 • Age: 8 hours

当前状态

高度 405.1 km
远地点 / 近地点 N/A
速度 7.67 km/s
星下点 -18.15°S, 147.06°W
发射日期 Aug 12, 2022
运行时间 3.9 years
类型 internet

技术详情

分类 Payload
质量 300.00 kg
干质量 275.00 kg
总质量 300.00 kg
长度 0.20 m
直径 2.80 m
跨度 9.00 m
形状 Box + pan
制造商 SPXS
平台类型 Starlink
阶段状态 In Orbit
所有者/国家 SPXS/US

Most Searched